Weather History for Owatonna, MN

Change the Weather History Date:

Friday, February 8, 2013

  Actual Average Record
Temperature  
Mean Temperature 27 °F -  
Max Temperature 28 °F 24 °F 57 °F (1987)
Min Temperature 26 °F 4 °F -28 °F (1971)
Degree Days  
Heating Degree Days 38    
Moisture  
Dew Point 18 °F    
Average Humidity 68    
Maximum Humidity 69    
Minimum Humidity 64    
Precipitation  
Precipitation 0.00 in - - ()
Sea Level Pressure  
Sea Level Pressure 30.26 in    
Wind  
Wind Speed 6 mph (ESE)    
Max Wind Speed 17 mph    
Max Gust Speed 22 mph    
Visibility 10 miles    
Events      
Averages and records for this station are not official NWS values.
T = Trace of Precipitation, MM = Missing Value Source: NWS Daily Summary

Daily Weather History Graph

Daily Weather History Graph

Search for Another Location

Airport:

Trip Planner

Search our weather history database for the weather conditions in past years. The results will help you decide how hot, cold, wet, or windy it might be!

Date:

Astronomy

Feb. 08, 2013 Rise Set
Actual Time 7:21 AM CST 5:33 PM CST
Civil Twilight 6:51 AM CST 6:03 PM CST
Nautical Twilight 6:17 AM CST 6:37 PM CST
Astronomical Twilight 5:43 AM CST 7:11 PM CST
Moon 5:52 AM CST (2/8) 4:06 PM CST (2/8)
Length of Visible Light 11h 11m
Length of Day
10h 11m
Waning Crescent, 3% of the Moon is Illuminated
Feb 8
Waning Crescent
Feb 10
New
Feb 17
First Quarter
Feb 25
Full
Mar 4
Last Quarter

Hourly Weather History & Observations

Time (CST) Temp. Windchill Dew Point Humidity Pressure Visibility Wind Dir Wind Speed Gust Speed Precip Events Conditions
12:34 AM 28.4 °F 21.2 °F 17.6 °F 64% 30.21 in 10.0 mi North 6.9 mph - N/A   Overcast
12:54 AM 28.4 °F 19.7 °F 17.6 °F 64% 30.21 in 10.0 mi North 9.2 mph - N/A   Overcast
1:14 AM 28.4 °F 22.2 °F 17.6 °F 64% 30.22 in 10.0 mi North 5.8 mph - N/A   Overcast
1:33 AM 28.4 °F 19.7 °F 17.6 °F 64% 30.23 in 10.0 mi North 9.2 mph - N/A   Overcast
1:53 AM 26.6 °F 19.1 °F 17.6 °F 69% 30.23 in 10.0 mi North 6.9 mph - N/A   Overcast
2:13 AM 28.4 °F 23.3 °F 17.6 °F 64% 30.25 in 10.0 mi North 4.6 mph - N/A   Overcast
2:34 AM 26.6 °F 20.0 °F 17.6 °F 69% 30.24 in 10.0 mi North 5.8 mph - N/A   Overcast
2:54 AM 26.6 °F 19.1 °F 17.6 °F 69% 30.24 in 10.0 mi North 6.9 mph - N/A   Overcast
3:14 AM 26.6 °F 21.2 °F 17.6 °F 69% 30.24 in 10.0 mi NNE 4.6 mph - N/A   Overcast
3:34 AM 26.6 °F 22.6 °F 17.6 °F 69% 30.25 in 10.0 mi NNE 3.5 mph - N/A   Overcast
3:53 AM 26.6 °F 22.6 °F 17.6 °F 69% 30.24 in 10.0 mi North 3.5 mph - N/A   Overcast
4:14 AM 26.6 °F 22.6 °F 17.6 °F 69% 30.24 in 10.0 mi NNE 3.5 mph - N/A   Overcast
4:34 AM 26.6 °F - 17.6 °F 69% 30.24 in 10.0 mi Calm Calm - N/A   Overcast
4:54 AM 26.6 °F 22.6 °F 17.6 °F 69% 30.26 in 10.0 mi North 3.5 mph - N/A   Overcast
5:14 AM 26.6 °F 22.6 °F 17.6 °F 69% 30.26 in 10.0 mi NNW 3.5 mph - N/A   Overcast
5:53 AM 26.6 °F - 17.6 °F 69% 30.27 in 10.0 mi Calm Calm - N/A   Overcast
6:13 AM 26.6 °F - 15.8 °F 64% 30.28 in 10.0 mi Calm Calm - N/A   Overcast
6:34 AM 26.6 °F - 17.6 °F 69% 30.29 in 10.0 mi Calm Calm - N/A   Overcast
6:54 AM 26.6 °F - 17.6 °F 69% 30.29 in 10.0 mi Calm Calm - N/A   Overcast
7:14 AM 26.6 °F - 15.8 °F 64% 30.29 in 10.0 mi Calm Calm - N/A   Overcast
7:34 AM 26.6 °F - 17.6 °F 69% 30.30 in 10.0 mi Calm Calm - N/A   Overcast
7:53 AM 26.6 °F - 15.8 °F 64% 30.30 in 10.0 mi Calm Calm - N/A   Overcast
8:14 AM 26.6 °F - 17.6 °F 69% 30.31 in 10.0 mi Calm Calm - N/A   Overcast
8:34 AM 26.6 °F - 15.8 °F 64% 30.31 in 10.0 mi Calm Calm - N/A   Overcast
8:54 AM 26.6 °F - 15.8 °F 64% 30.32 in 10.0 mi Calm Calm - N/A   Overcast
9:13 AM 26.6 °F - 15.8 °F 64% 30.32 in 10.0 mi Calm Calm - N/A   Overcast
9:34 AM 26.6 °F 22.6 °F 17.6 °F 69% 30.32 in 10.0 mi East 3.5 mph - N/A   Overcast
9:54 AM 26.6 °F 20.0 °F 17.6 °F 69% 30.32 in 10.0 mi ESE 5.8 mph - N/A   Overcast
10:14 AM 26.6 °F 21.2 °F 17.6 °F 69% 30.32 in 10.0 mi East 4.6 mph - N/A   Overcast
10:59 AM 26.6 °F - 17.6 °F 69% 30.32 in 10.0 mi Calm Calm - N/A   Overcast
11:14 AM 26.6 °F 21.2 °F 17.6 °F 69% 30.33 in 10.0 mi ESE 4.6 mph - N/A   Overcast
11:33 AM 26.6 °F 18.2 °F 17.6 °F 69% 30.32 in 10.0 mi East 8.1 mph - N/A   Overcast
11:53 AM 26.6 °F 19.1 °F 17.6 °F 69% 30.32 in 10.0 mi ENE 6.9 mph - N/A   Overcast
12:14 PM 26.6 °F 19.1 °F 17.6 °F 69% 30.31 in 10.0 mi SE 6.9 mph - N/A   Overcast
12:34 PM 26.6 °F 21.2 °F 17.6 °F 69% 30.31 in 10.0 mi SE 4.6 mph - N/A   Overcast
12:54 PM 26.6 °F 21.2 °F 17.6 °F 69% 30.31 in 10.0 mi ESE 4.6 mph - N/A   Overcast
1:14 PM 26.6 °F 21.2 °F 17.6 °F 69% 30.30 in 10.0 mi SE 4.6 mph - N/A   Overcast
1:33 PM 26.6 °F 21.2 °F 17.6 °F 69% 30.30 in 10.0 mi SE 4.6 mph - N/A   Overcast
1:53 PM 26.6 °F 18.2 °F 17.6 °F 69% 30.29 in 10.0 mi ESE 8.1 mph - N/A   Overcast
2:14 PM 26.6 °F 19.1 °F 17.6 °F 69% 30.29 in 10.0 mi SE 6.9 mph - N/A   Overcast
2:34 PM 26.6 °F 20.0 °F 17.6 °F 69% 30.28 in 10.0 mi SE 5.8 mph - N/A   Overcast
2:54 PM 26.6 °F 21.2 °F 17.6 °F 69% 30.28 in 10.0 mi SSE 4.6 mph - N/A   Overcast
3:14 PM 26.6 °F 19.1 °F 17.6 °F 69% 30.28 in 10.0 mi South 6.9 mph - N/A   Overcast
3:34 PM 26.6 °F 19.1 °F 17.6 °F 69% 30.27 in 10.0 mi SE 6.9 mph - N/A   Overcast
3:54 PM 26.6 °F 20.0 °F 17.6 °F 69% 30.27 in 10.0 mi SE 5.8 mph - N/A   Overcast
4:14 PM 26.6 °F 20.0 °F 17.6 °F 69% 30.26 in 10.0 mi SE 5.8 mph - N/A   Overcast
4:34 PM 26.6 °F 19.1 °F 17.6 °F 69% 30.26 in 10.0 mi SSE 6.9 mph - N/A   Overcast
4:54 PM 26.6 °F 18.2 °F 17.6 °F 69% 30.26 in 10.0 mi SE 8.1 mph - N/A   Overcast
5:14 PM 26.6 °F 19.1 °F 17.6 °F 69% 30.25 in 10.0 mi SSE 6.9 mph - N/A   Overcast
5:34 PM 26.6 °F 16.8 °F 17.6 °F 69% 30.24 in 10.0 mi SE 10.4 mph - N/A   Overcast
5:53 PM 26.6 °F 16.8 °F 17.6 °F 69% 30.24 in 10.0 mi SE 10.4 mph - N/A   Overcast
6:13 PM 26.6 °F 17.5 °F 17.6 °F 69% 30.23 in 10.0 mi SE 9.2 mph - N/A   Overcast
6:34 PM 28.4 °F 19.7 °F 17.6 °F 64% 30.24 in 10.0 mi SE 9.2 mph - N/A   Overcast
6:54 PM 28.4 °F 20.4 °F 17.6 °F 64% 30.24 in 10.0 mi SSE 8.1 mph 11.5 mph N/A   Overcast
7:14 PM 28.4 °F 19.7 °F 19.4 °F 69% 30.23 in 10.0 mi SSE 9.2 mph - N/A   Overcast
7:53 PM 28.4 °F 19.7 °F 19.4 °F 69% 30.23 in 10.0 mi SSE 9.2 mph 17.3 mph N/A   Overcast
8:14 PM 28.4 °F 18.0 °F 19.4 °F 69% 30.22 in 10.0 mi SSE 12.7 mph - N/A   Overcast
8:33 PM 28.4 °F 17.0 °F 19.4 °F 69% 30.22 in 10.0 mi SSE 15.0 mph 20.7 mph N/A   Overcast
8:54 PM 28.4 °F 18.5 °F 19.4 °F 69% 30.22 in 10.0 mi SSE 11.5 mph 17.3 mph N/A   Overcast
9:14 PM 28.4 °F 16.6 °F 19.4 °F 69% 30.21 in 10.0 mi SSE 16.1 mph - N/A   Overcast
9:34 PM 28.4 °F 17.5 °F 19.4 °F 69% 30.20 in 10.0 mi SSE 13.8 mph 20.7 mph N/A   Overcast
9:53 PM 28.4 °F 18.0 °F 19.4 °F 69% 30.21 in 10.0 mi SSE 12.7 mph - N/A   Overcast
10:13 PM 28.4 °F 16.2 °F 19.4 °F 69% 30.21 in 10.0 mi SSE 17.3 mph - N/A   Overcast
10:34 PM 28.4 °F 16.2 °F 19.4 °F 69% 30.20 in 10.0 mi SSE 17.3 mph - N/A   Overcast
10:53 PM 28.4 °F 17.5 °F 19.4 °F 69% 30.21 in 10.0 mi SSE 13.8 mph 17.3 mph N/A   Overcast
11:14 PM 28.4 °F 16.6 °F 19.4 °F 69% 30.21 in 10.0 mi SSE 16.1 mph 21.9 mph N/A   Overcast
11:34 PM 28.4 °F 18.5 °F 19.4 °F 69% 30.21 in 10.0 mi South 11.5 mph - N/A   Overcast
11:54 PM 28.4 °F 18.0 °F 19.4 °F 69% 30.20 in 10.0 mi SSE 12.7 mph 17.3 mph N/A   Overcast